Location: San Angelo State Park
(31.4666°N, 100.5360°W)
Time: 02:43:54
(UTC-06:00)

N. Korean satellite - Visible Passes

Search period start: 19 November 2019 00:00
Search period end: 29 November 2019 00:00
Orbit: 456 x 506 km, 97.2° (Epoch: 18 November)

Date Brightness Start Highest point End Pass type
(mag) Time Alt. Az. Time Alt. Az. Time Alt. Az.
19 Nov 6.6 06:30:11 10° N 06:33:52 90° N 06:37:29 10° SSW visible
19 Nov 9.3 18:34:12 10° SSW 18:37:08 23° W 18:40:07 10° NW visible
20 Nov 8.3 06:05:04 10° NNE 06:08:28 36° E 06:11:49 10° SSE visible
20 Nov 7.5 18:08:09 10° S 18:11:42 55° W 18:15:18 10° NNW visible
21 Nov 9.8 05:40:38 10° NE 05:42:59 16° E 05:45:19 10° SE visible
22 Nov 10.0 18:52:28 10° SW 18:54:25 14° W 18:56:22 10° WNW visible
23 Nov 7.0 06:22:02 10° NNE 06:25:41 68° E 06:29:14 10° S visible
23 Nov 8.8 18:25:41 10° SSW 18:28:55 30° W 18:32:12 10° NW visible
24 Nov 8.9 05:57:05 10° NE 06:00:14 28° E 06:03:21 10° SSE visible
25 Nov 10.0 05:33:07 10° ENE 05:34:42 12° E 05:36:18 10° ESE visible
26 Nov 6.5 06:39:13 10° N 06:42:49 64° WNW 06:46:20 10° SSW visible
26 Nov 9.8 18:43:36 10° SW 18:46:09 18° W 18:48:43 10° NW visible
27 Nov 7.6 06:13:54 10° NNE 06:17:26 50° E 06:20:53 10° S visible
27 Nov 8.2 18:17:12 10° S 18:20:39 40° W 18:24:09 10° NNW visible
28 Nov 9.3 05:49:08 10° NE 05:51:57 21° E 05:54:43 10° SSE visible
